Time,TemperatureF,DewpointF,PressureIn,WindDirection,WindDirectionDegrees,WindSpeedMPH,WindSpeedGustMPH,Humidity,HourlyPrecipIn,Conditions,Clouds,dailyrainin,SoftwareType,DateUTC
2013-01-28 00:01:00,21.0,-2.0,29.83,NW,326,11.0,11.0,36,0.00,,,0.00,,2013-01-28 09:01:00,
2013-01-28 00:11:00,21.0,-2.0,29.83,NW,326,11.0,11.0,36,0.00,,,0.00,,2013-01-28 09:11:00,
2013-01-28 00:21:00,21.0,-2.0,29.85,NW,323,10.0,13.0,36,0.00,,,0.00,,2013-01-28 09:21:00,
2013-01-28 00:31:00,20.0,-3.0,29.83,NNW,329,13.0,22.0,35,0.00,,,0.00,,2013-01-28 09:31:00,
2013-01-28 01:01:00,20.0,-3.0,29.83,NW,325,13.0,13.0,35,0.00,,,0.00,,2013-01-28 10:01:00,
2013-01-28 01:21:00,20.0,-3.0,29.83,NW,321,11.0,11.0,35,0.00,,,0.00,,2013-01-28 10:21:00,
2013-01-28 01:31:00,20.0,-3.0,29.83,NW,315,10.0,17.0,35,0.00,,,0.00,,2013-01-28 10:31:00,
2013-01-28 01:52:00,20.0,-4.0,29.83,NW,318,9.0,14.0,34,0.00,,,0.00,,2013-01-28 10:52:00,
2013-01-28 02:01:00,20.0,-4.0,29.83,NW,322,12.0,0.0,34,0.00,,,0.00,,2013-01-28 11:01:00,
2013-01-28 02:11:00,20.0,-4.0,29.83,NW,322,12.0,0.0,34,0.00,,,0.00,,2013-01-28 11:11:00,
2013-01-28 02:21:00,20.0,-4.0,29.83,NW,320,12.0,12.0,34,0.00,,,0.00,,2013-01-28 11:21:00,
2013-01-28 02:32:00,20.0,-4.0,29.83,NW,320,10.0,10.0,33,0.00,,,0.00,,2013-01-28 11:32:00,
2013-01-28 02:52:00,20.0,-4.0,29.83,NW,318,9.0,13.0,33,0.00,,,0.00,,2013-01-28 11:52:00,
2013-01-28 03:03:00,21.0,-3.0,29.83,NW,319,10.0,10.0,34,0.00,,,0.00,,2013-01-28 12:03:00,
2013-01-28 03:11:00,21.0,-3.0,29.83,NW,319,10.0,10.0,34,0.00,,,0.00,,2013-01-28 12:11:00,
2013-01-28 03:22:00,21.0,-3.0,29.83,NW,313,10.0,10.0,34,0.00,,,0.00,,2013-01-28 12:22:00,
2013-01-28 03:32:00,21.0,-3.0,29.83,NW,316,10.0,11.0,34,0.00,,,0.00,,2013-01-28 12:32:00,
2013-01-28 03:42:00,21.0,-3.0,29.83,NW,316,10.0,11.0,34,0.00,,,0.00,,2013-01-28 12:42:00,
2013-01-28 03:52:00,21.0,-3.0,29.83,NW,320,9.0,9.0,34,0.00,,,0.00,,2013-01-28 12:52:00,
2013-01-28 04:02:00,21.0,-4.0,29.83,NW,319,8.0,0.0,33,0.00,,,0.00,,2013-01-28 13:02:00,
2013-01-28 04:11:00,21.0,-4.0,29.83,NW,319,8.0,0.0,33,0.00,,,0.00,,2013-01-28 13:11:00,
2013-01-28 04:22:00,21.0,-3.0,29.83,NW,325,10.0,0.0,34,0.00,,,0.00,,2013-01-28 13:22:00,
2013-01-28 04:32:00,21.0,-4.0,29.83,NW,321,11.0,11.0,33,0.00,,,0.00,,2013-01-28 13:32:00,
2013-01-28 05:02:00,21.0,-3.0,29.83,NW,317,10.0,12.0,34,0.00,,,0.00,,2013-01-28 14:02:00,
2013-01-28 05:22:00,21.0,-3.0,29.80,NW,317,10.0,0.0,34,0.00,,,0.00,,2013-01-28 14:22:00,
2013-01-28 05:32:00,21.0,-2.0,29.80,NW,317,10.0,10.0,36,0.00,,,0.00,,2013-01-28 14:32:00,
2013-01-28 05:42:00,21.0,-2.0,29.80,NW,317,10.0,10.0,36,0.00,,,0.00,,2013-01-28 14:42:00,
2013-01-28 05:53:00,21.0,1.0,29.80,NW,314,9.0,9.0,41,0.00,,,0.00,,2013-01-28 14:53:00,
2013-01-28 06:02:00,21.0,3.0,29.77,NW,313,8.0,13.0,45,0.00,,,0.00,,2013-01-28 15:02:00,
2013-01-28 06:11:00,21.0,3.0,29.77,NW,313,8.0,13.0,45,0.00,,,0.00,,2013-01-28 15:11:00,
2013-01-28 06:22:00,21.0,5.0,29.77,NW,307,8.0,12.0,49,0.00,,,0.00,,2013-01-28 15:22:00,
2013-01-28 06:32:00,21.0,6.0,29.77,WNW,303,8.0,8.0,51,0.00,,,0.00,,2013-01-28 15:32:00,
2013-01-28 06:42:00,21.0,6.0,29.77,WNW,303,8.0,8.0,51,0.00,,,0.00,,2013-01-28 15:42:00,
2013-01-28 06:53:00,21.0,7.0,29.77,NW,304,7.0,7.0,53,0.00,,,0.00,,2013-01-28 15:53:00,
2013-01-28 07:02:00,21.0,7.0,29.77,WNW,300,6.0,6.0,54,0.00,,,0.00,,2013-01-28 16:02:00,
2013-01-28 07:11:00,21.0,7.0,29.77,WNW,300,6.0,6.0,54,0.00,,,0.00,,2013-01-28 16:11:00,
2013-01-28 07:21:00,21.0,8.0,29.77,WNW,303,7.0,8.0,57,0.00,,,0.00,,2013-01-28 16:21:00,
2013-01-28 07:32:00,21.0,9.0,29.74,WNW,301,7.0,9.0,59,0.00,,,0.00,,2013-01-28 16:32:00,
2013-01-28 07:42:00,21.0,9.0,29.74,WNW,301,7.0,9.0,59,0.00,,,0.00,,2013-01-28 16:42:00,
2013-01-28 07:52:00,22.0,9.0,29.74,WNW,292,8.0,0.0,56,0.00,,,0.00,,2013-01-28 16:52:00,
2013-01-28 08:01:00,22.0,9.0,29.74,WNW,292,8.0,8.0,56,0.00,,,0.00,,2013-01-28 17:01:00,
2013-01-28 08:11:00,22.0,9.0,29.74,WNW,292,8.0,8.0,56,0.00,,,0.00,,2013-01-28 17:11:00,
2013-01-28 08:22:00,23.0,10.0,29.74,NW,304,7.0,8.0,58,0.00,,,0.00,,2013-01-28 17:22:00,
2013-01-28 08:31:00,24.0,12.0,29.74,NW,326,8.0,11.0,59,0.00,,,0.00,,2013-01-28 17:31:00,
2013-01-28 08:42:00,24.0,12.0,29.74,NW,326,8.0,11.0,59,0.00,,,0.00,,2013-01-28 17:42:00,
2013-01-28 08:52:00,26.0,16.0,29.74,NNW,344,8.0,8.0,64,0.00,,,0.00,,2013-01-28 17:52:00,
2013-01-28 09:01:00,27.0,16.0,29.74,North,354,7.0,7.0,64,0.00,,,0.00,,2013-01-28 18:01:00,
2013-01-28 09:22:00,28.0,16.0,29.74,North,0,6.0,11.0,60,0.00,,,0.00,,2013-01-28 18:22:00,
2013-01-28 09:33:00,28.0,16.0,29.71,North,350,7.0,7.0,60,0.00,,,0.00,,2013-01-28 18:33:00,
2013-01-28 09:52:00,29.0,18.0,29.71,North,351,6.0,10.0,63,0.00,,,0.00,,2013-01-28 18:52:00,
2013-01-28 10:01:00,30.0,19.0,29.71,North,355,6.0,13.0,64,0.00,,,0.00,,2013-01-28 19:01:00,
2013-01-28 10:21:00,31.0,21.0,29.71,NNE,20,8.0,10.0,67,0.00,,,0.00,,2013-01-28 19:21:00,
2013-01-28 10:32:00,31.0,19.0,29.71,NE,49,8.0,11.0,61,0.00,,,0.00,,2013-01-28 19:32:00,
2013-01-28 10:42:00,31.0,19.0,29.71,NE,49,8.0,11.0,61,0.00,,,0.00,,2013-01-28 19:42:00,
2013-01-28 10:52:00,31.0,21.0,29.71,NE,56,8.0,0.0,66,0.00,,,0.00,,2013-01-28 19:52:00,
2013-01-28 11:01:00,31.0,21.0,29.68,NE,47,8.0,8.0,67,0.00,,,0.00,,2013-01-28 20:01:00,
2013-01-28 11:11:00,31.0,21.0,29.68,NE,47,8.0,8.0,67,0.00,,,0.00,,2013-01-28 20:11:00,
2013-01-28 11:32:00,31.0,22.0,29.68,NE,44,9.0,15.0,68,0.00,,,0.00,,2013-01-28 20:32:00,
2013-01-28 11:42:00,31.0,22.0,29.68,NE,44,9.0,15.0,68,0.00,,,0.00,,2013-01-28 20:42:00,
2013-01-28 11:52:00,32.0,23.0,29.68,NE,37,9.0,0.0,70,0.00,,,0.00,,2013-01-28 20:52:00,
2013-01-28 12:02:00,32.0,24.0,29.65,NE,35,8.0,0.0,71,0.00,,,0.00,,2013-01-28 21:02:00,
2013-01-28 12:11:00,32.0,24.0,29.65,NE,35,8.0,0.0,71,0.00,,,0.00,,2013-01-28 21:11:00,
2013-01-28 12:22:00,32.0,24.0,29.65,NE,34,8.0,16.0,71,0.00,,,0.00,,2013-01-28 21:22:00,
2013-01-28 12:33:00,32.0,24.0,29.65,NNE,32,8.0,8.0,71,0.00,,,0.00,,2013-01-28 21:33:00,
2013-01-28 12:42:00,32.0,24.0,29.65,NNE,32,8.0,8.0,71,0.00,,,0.00,,2013-01-28 21:42:00,
2013-01-28 12:52:00,33.0,25.0,29.65,NE,36,9.0,13.0,73,0.00,,,0.00,,2013-01-28 21:52:00,
2013-01-28 13:01:00,33.0,24.0,29.62,NE,39,10.0,10.0,70,0.00,,,0.00,,2013-01-28 22:01:00,
2013-01-28 13:22:00,34.0,26.0,29.62,NE,41,9.0,16.0,71,0.00,,,0.00,,2013-01-28 22:22:00,
2013-01-28 13:31:00,33.0,23.0,29.59,NE,49,10.0,15.0,67,0.00,,,0.00,,2013-01-28 22:31:00,
2013-01-28 13:42:00,33.0,23.0,29.59,NE,49,10.0,15.0,67,0.00,,,0.00,,2013-01-28 22:42:00,
2013-01-28 13:52:00,34.0,26.0,29.62,NE,56,10.0,12.0,72,0.00,,,0.00,,2013-01-28 22:52:00,
2013-01-28 14:01:00,34.0,26.0,29.59,ENE,58,10.0,10.0,71,0.00,,,0.00,,2013-01-28 23:01:00,
2013-01-28 14:21:00,33.0,25.0,29.59,NE,53,11.0,11.0,73,0.00,,,0.00,,2013-01-28 23:21:00,
2013-01-28 14:32:00,34.0,27.0,29.56,NE,48,10.0,15.0,75,0.00,,,0.00,,2013-01-28 23:32:00,
2013-01-28 14:41:00,34.0,27.0,29.56,NE,48,10.0,15.0,75,0.00,,,0.00,,2013-01-28 23:41:00,
2013-01-28 14:53:00,34.0,27.0,29.56,NE,51,10.0,15.0,76,0.00,,,0.00,,2013-01-28 23:53:00,
2013-01-28 15:01:00,34.0,27.0,29.56,ENE,71,9.0,9.0,76,0.00,,,0.00,,2013-01-29 00:01:00,
2013-01-28 15:11:00,34.0,27.0,29.56,ENE,71,9.0,9.0,76,0.00,,,0.00,,2013-01-29 00:11:00,
2013-01-28 15:21:00,34.0,27.0,29.56,East,87,8.0,10.0,76,0.00,,,0.00,,2013-01-29 00:21:00,
2013-01-28 15:32:00,34.0,27.0,29.56,East,86,8.0,8.0,75,0.00,,,0.00,,2013-01-29 00:32:00,
2013-01-28 15:41:00,34.0,27.0,29.56,East,86,8.0,8.0,75,0.00,,,0.00,,2013-01-29 00:41:00,
2013-01-28 15:52:00,35.0,29.0,29.53,East,82,8.0,0.0,77,0.00,,,0.00,,2013-01-29 00:52:00,
2013-01-28 16:01:00,35.0,29.0,29.53,ENE,71,10.0,24.0,78,0.00,,,0.00,,2013-01-29 01:01:00,
2013-01-28 16:22:00,34.0,28.0,29.53,NE,52,11.0,17.0,77,0.00,,,0.00,,2013-01-29 01:22:00,
2013-01-28 16:31:00,34.0,28.0,29.53,NE,48,11.0,11.0,78,0.00,,,0.00,,2013-01-29 01:31:00,
2013-01-28 16:41:00,34.0,28.0,29.53,NE,48,11.0,11.0,78,0.00,,,0.00,,2013-01-29 01:41:00,
2013-01-28 16:52:00,35.0,29.0,29.53,NE,48,11.0,11.0,79,0.00,,,0.00,,2013-01-29 01:52:00,
2013-01-28 17:01:00,35.0,30.0,29.50,NE,53,9.0,11.0,81,0.00,,,0.00,,2013-01-29 02:01:00,
2013-01-28 17:11:00,35.0,30.0,29.50,NE,53,9.0,11.0,81,0.00,,,0.00,,2013-01-29 02:11:00,
2013-01-28 17:21:00,35.0,30.0,29.47,ENE,59,9.0,9.0,82,0.04,,,0.04,,2013-01-29 02:21:00,
2013-01-28 17:32:00,36.0,31.0,29.50,NE,54,9.0,12.0,83,0.04,,,0.04,,2013-01-29 02:32:00,
2013-01-28 17:52:00,36.0,32.0,29.47,NE,47,9.0,11.0,84,0.04,,,0.04,,2013-01-29 02:52:00,
2013-01-28 18:02:00,36.0,32.0,29.47,NE,44,9.0,9.0,85,0.04,,,0.04,,2013-01-29 03:02:00,
2013-01-28 18:21:00,36.0,32.0,29.47,NE,42,9.0,10.0,84,0.00,,,0.04,,2013-01-29 03:21:00,
2013-01-28 18:31:00,36.0,31.0,29.44,NE,34,8.0,8.0,83,0.00,,,0.04,,2013-01-29 03:31:00,
2013-01-28 18:41:00,36.0,31.0,29.44,NE,34,8.0,8.0,83,0.00,,,0.04,,2013-01-29 03:41:00,
2013-01-28 18:52:00,36.0,31.0,29.44,NNE,32,9.0,13.0,82,0.00,,,0.04,,2013-01-29 03:52:00,
2013-01-28 19:01:00,37.0,32.0,29.44,NNE,23,9.0,13.0,83,0.00,,,0.04,,2013-01-29 04:01:00,
2013-01-28 19:21:00,37.0,32.0,29.41,NNE,23,9.0,9.0,83,0.00,,,0.04,,2013-01-29 04:21:00,
2013-01-28 19:31:00,37.0,32.0,29.41,NNE,26,8.0,0.0,83,0.00,,,0.04,,2013-01-29 04:31:00,
2013-01-28 19:41:00,37.0,32.0,29.41,NNE,26,8.0,0.0,83,0.00,,,0.04,,2013-01-29 04:41:00,
2013-01-28 19:52:00,37.0,33.0,29.38,NNE,20,8.0,9.0,84,0.00,,,0.04,,2013-01-29 04:52:00,
2013-01-28 20:03:00,38.0,34.0,29.38,NNE,21,8.0,12.0,86,0.00,,,0.04,,2013-01-29 05:03:00,
2013-01-28 20:21:00,38.0,34.0,29.38,NNE,14,7.0,13.0,87,0.00,,,0.04,,2013-01-29 05:21:00,
2013-01-28 20:31:00,38.0,35.0,29.38,NNE,13,8.0,8.0,88,0.00,,,0.04,,2013-01-29 05:31:00,
2013-01-28 20:52:00,38.0,35.0,29.38,North,10,8.0,0.0,89,0.00,,,0.04,,2013-01-29 05:52:00,
2013-01-28 21:01:00,38.0,36.0,29.35,North,1,9.0,11.0,91,0.00,,,0.04,,2013-01-29 06:01:00,
2013-01-28 21:11:00,38.0,36.0,29.35,North,1,9.0,11.0,91,0.00,,,0.04,,2013-01-29 06:11:00,
2013-01-28 21:21:00,39.0,37.0,29.35,North,11,9.0,11.0,92,0.00,,,0.04,,2013-01-29 06:21:00,
2013-01-28 21:31:00,39.0,37.0,29.35,NNE,17,8.0,11.0,92,0.00,,,0.04,,2013-01-29 06:31:00,
2013-01-28 21:41:00,39.0,37.0,29.35,NNE,17,8.0,11.0,92,0.00,,,0.04,,2013-01-29 06:41:00,
2013-01-28 21:52:00,39.0,37.0,29.32,North,10,8.0,13.0,93,0.00,,,0.04,,2013-01-29 06:52:00,
2013-01-28 22:01:00,39.0,37.0,29.32,North,1,9.0,9.0,94,0.00,,,0.04,,2013-01-29 07:01:00,
2013-01-28 22:11:00,39.0,37.0,29.32,North,1,9.0,9.0,94,0.00,,,0.04,,2013-01-29 07:11:00,
2013-01-28 22:21:00,39.0,37.0,29.32,North,359,8.0,8.0,94,0.00,,,0.04,,2013-01-29 07:21:00,
2013-01-28 22:31:00,40.0,39.0,29.32,North,356,8.0,13.0,95,0.00,,,0.04,,2013-01-29 07:31:00,
2013-01-28 22:52:00,40.0,39.0,29.29,North,353,8.0,0.0,95,0.00,,,0.04,,2013-01-29 07:52:00,
2013-01-28 23:01:00,40.0,39.0,29.29,North,358,8.0,8.0,96,0.00,,,0.04,,2013-01-29 08:01:00,
2013-01-28 23:21:00,41.0,40.0,29.29,North,358,8.0,21.0,96,0.00,,,0.04,,2013-01-29 08:21:00,
2013-01-28 23:31:00,41.0,40.0,29.29,North,1,8.0,16.0,96,0.00,,,0.04,,2013-01-29 08:31:00,
2013-01-28 23:51:00,41.0,40.0,29.29,North,1,7.0,7.0,96,0.00,,,0.04,,2013-01-29 08:51:00,